Theta_e
323 323 323 323 323 325 324 324 324 325 326 326 326 326 327 327 328 327 328 328 329 329 330 329 329 330 330 331 331 331 331 330 330 326 325 327 324 324 327 325 326 326 324 322 322 320 318 315 318 325 327 328 328 328 328 328 327 326 325 326 327 327 327
323 323 322 322 323 322 323 323 324 324 325 325 326 326 326 327 328 327 327 327 327 327 329 329 330 330 330 329 329 329 329 329 330 329 326 325 325 325 326 325 326 324 324 322 322 322 318 316 316 318 320 325 327 327 328 329 329 328 327 326 327 327 327
322 322 321 321 321 321 322 322 323 323 324 325 325 326 326 327 327 327 327 327 327 327 328 328 328 329 329 329 330 329 329 328 329 328 326 326 326 326 326 326 323 322 322 321 321 321 320 320 317 317 319 319 319 323 327 327 328 328 327 327 327 327 327
320 320 320 321 321 321 321 321 322 323 325 325 326 326 327 327 327 328 327 327 328 328 328 328 328 328 329 329 329 329 329 328 328 327 326 326 326 326 326 325 324 324 322 320 320 321 321 318 317 317 320 321 320 320 324 327 328 329 328 327 326 326 326
319 320 319 320 321 321 322 322 323 324 324 325 325 326 326 327 327 327 328 328 328 328 328 329 329 329 329 329 329 328 328 328 328 327 326 326 325 325 325 326 325 325 324 323 324 324 322 321 320 318 318 321 321 322 325 326 329 328 328 327 327 327 327
319 319 319 321 322 323 322 322 322 321 323 323 324 325 326 327 327 327 327 327 327 328 329 329 329 329 329 329 328 328 327 326 326 326 325 325 326 325 325 327 326 326 325 326 325 323 324 323 322 318 319 322 318 320 324 325 323 327 329 328 328 328 327
319 319 320 322 323 323 323 322 322 323 323 324 325 325 327 327 327 328 328 328 328 328 328 328 328 328 328 328 328 327 327 327 327 326 326 325 325 325 326 325 325 325 325 326 326 325 323 322 320 319 319 320 320 319 323 323 325 323 326 329 329 329 328
320 321 322 323 324 324 324 323 323 324 324 325 325 326 327 327 326 327 328 327 327 327 327 327 327 328 328 328 327 327 327 327 327 326 326 326 326 326 326 326 326 326 326 326 326 325 326 324 323 322 320 317 318 320 319 323 323 323 323 326 330 329 328
323 323 323 324 325 325 324 323 323 323 324 325 326 325 326 324 323 323 324 323 323 324 325 325 326 327 327 327 327 327 326 328 327 327 327 327 326 327 327 327 326 326 327 327 327 327 327 326 325 324 323 320 316 314 318 318 320 321 326 324 328 330 330
321 322 322 322 322 323 323 322 321 322 323 324 325 322 321 320 320 320 319 320 320 321 321 322 324 325 326 326 326 326 325 326 326 326 326 326 326 327 327 327 326 327 327 328 328 327 327 327 326 325 325 322 320 316 314 315 317 319 323 326 323 327 330
318 318 319 319 319 319 319 319 320 319 319 320 321 319 318 317 317 318 317 317 317 317 317 318 319 321 323 324 325 325 325 325 325 326 326 326 326 326 326 326 327 326 327 327 327 327 327 327 326 326 325 325 324 319 318 316 317 321 321 325 326 324 328
316 317 317 318 318 317 317 317 318 318 317 316 316 315 315 315 314 314 315 314 314 313 314 315 316 317 320 322 323 324 324 324 323 324 325 325 326 326 326 325 327 326 327 326 327 327 327 327 327 326 326 325 324 323 320 319 315 319 323 321 324 327 327
315 315 315 316 315 315 315 315 316 315 314 314 313 313 313 312 312 312 312 312 312 312 312 313 314 315 317 319 321 322 324 323 323 323 323 324 325 326 325 325 325 325 326 326 326 326 326 327 327 326 326 325 324 324 323 320 317 317 321 323 324 326 328
313 314 313 314 314 313 313 314 314 314 313 312 312 311 311 311 310 310 311 311 310 310 311 311 313 314 315 317 320 322 323 323 322 322 322 322 323 323 324 323 323 324 326 325 326 326 326 327 327 326 326 325 324 324 323 320 317 317 318 321 323 325 328
312 313 312 312 312 312 312 311 312 311 311 311 311 311 310 310 309 309 310 309 309 309 310 310 312 313 316 317 320 322 323 322 322 321 322 322 322 323 323 322 322 322 324 325 325 325 325 325 325 325 325 324 324 323 323 321 319 317 316 318 320 325 326
312 311 311 310 310 310 310 310 310 308 308 309 310 310 310 309 308 308 308 308 308 308 308 309 311 313 317 318 320 322 322 321 320 319 319 319 319 320 320 320 320 321 323 322 323 323 323 324 324 324 323 323 323 322 322 322 319 316 316 316 320 322 324
310 310 309 309 308 308 308 307 308 306 306 307 306 308 309 308 307 307 307 307 307 307 307 308 310 314 317 318 318 319 320 320 319 318 317 316 316 316 316 316 316 317 320 321 321 321 322 323 322 323 323 322 322 321 321 321 321 319 317 316 318 320 323
308 308 308 308 307 306 305 305 306 305 305 305 305 306 307 307 306 306 306 306 306 306 306 306 309 311 314 315 314 314 314 315 315 314 314 315 316 315 315 315 315 314 315 316 318 320 321 321 322 322 321 322 322 322 321 321 321 321 318 316 317 320 322
306 306 306 306 305 303 303 303 303 304 305 304 305 305 305 305 305 304 304 304 304 304 305 306 307 309 310 310 310 309 309 309 310 311 311 312 313 315 314 315 315 314 313 311 312 315 317 320 322 322 322 322 322 322 320 319 320 319 318 318 317 316 320
305 304 304 303 303 302 302 302 303 303 304 304 305 304 304 304 304 304 303 303 303 303 303 304 305 307 308 308 307 306 306 306 307 308 308 308 310 312 314 314 314 314 313 310 309 309 312 316 319 320 321 322 322 321 319 319 319 319 319 318 317 317 318
304 303 303 302 301 301 301 302 302 303 303 303 303 303 303 303 303 303 303 302 302 303 302 302 303 305 307 306 306 306 306 306 305 306 306 306 307 309 311 312 312 312 313 312 309 307 307 310 316 318 318 321 321 320 319 319 317 316 317 317 317 315 316
303 302 301 300 299 299 300 301 301 301 301 302 303 302 303 302 302 301 301 301 301 301 301 301 301 302 304 305 305 305 306 306 306 305 305 306 307 307 308 309 310 311 312 313 310 308 306 306 308 308 309 313 316 320 319 318 317 317 316 316 315 315 315
301 300 299 299 298 298 298 299 299 299 299 300 300 301 301 301 300 299 299 299 299 299 299 299 300 298 299 304 304 305 306 306 306 306 305 306 307 306 306 307 308 311 309 309 307 303 301 301 304 304 304 304 306 312 315 316 316 315 316 315 315 314 313
299 298 298 297 297 297 297 298 298 298 298 298 298 299 299 298 298 298 297 297 297 298 298 298 295 294 295 297 303 303 303 303 303 303 303 303 303 304 304 306 306 308 308 309 309 304 302 300 299 299 299 300 302 302 304 307 310 315 315 315 315 314 313
297 297 297 296 296 296 297 296 296 297 297 297 297 298 297 297 297 297 297 297 296 297 297 296 293 294 295 295 299 301 301 301 301 300 301 301 301 302 302 303 304 304 305 307 309 310 310 304 301 300 300 299 298 296 297 299 302 306 310 313 313 313 313
296 296 296 296 296 296 295 295 295 295 296 297 297 296 296 296 296 297 297 296 296 296 296 294 293 294 294 294 295 299 300 300 299 299 299 299 299 299 300 300 300 301 301 306 305 307 310 312 306 303 303 303 302 300 296 296 297 302 306 307 308 306 304
295 295 295 295 295 295 295 294 294 295 295 296 295 295 296 296 296 296 296 296 295 295 295 294 293 294 294 294 294 297 299 299 299 298 298 298 298 298 298 298 298 298 299 300 300 303 306 308 309 308 308 307 307 305 301 299 298 298 301 303 302 301 301
295 294 294 294 294 294 294 294 294 294 294 294 294 294 294 294 295 295 295 295 295 295 294 293 293 293 293 294 295 296 299 299 298 298 298 298 298 298 297 297 298 298 298 299 298 298 304 305 306 307 306 305 305 305 305 303 302 303 302 302 301 301 301
294 294 294 294 293 293 293 293 293 294 294 293 293 293 293 294 294 294 294 295 294 294 294 292 292 293 293 293 295 299 299 298 298 297 297 298 298 298 298 297 296 296 296 296 295 294 297 303 303 303 303 304 304 304 304 303 298 298 300 301 301 300 300
294 293 293 293 293 292 292 292 293 294 292 292 292 291 291 292 293 293 294 294 293 293 294 293 292 292 293 293 296 298 298 298 297 297 296 297 297 298 298 298 296 296 296 295 293 292 294 299 301 301 301 301 302 302 302 304 301 298 297 297 296 296 296
293 293 293 292 292 292 292 292 292 293 291 291 290 291 291 291 291 292 292 293 294 292 293 293 292 292 292 293 296 297 297 297 296 296 296 296 296 296 297 298 298 295 295 294 292 292 293 299 299 299 299 299 299 299 300 301 303 303 299 298 298 297 296
293 292 292 291 292 291 291 291 291 291 290 290 290 291 292 290 290 291 291 292 295 292 292 293 292 291 292 293 296 297 297 296 295 295 295 295 296 296 296 297 296 294 294 293 291 292 292 297 298 298 298 298 298 298 299 300 300 300 301 301 301 302 300
293 292 291 291 291 291 291 290 289 290 289 290 290 290 291 290 290 290 290 290 291 292 292 292 293 291 292 292 293 296 296 295 294 294 294 294 294 294 295 295 295 291 291 291 291 291 291 292 297 297 297 296 296 296 300 300 300 301 300 300 300 300 300
292 292 292 291 292 291 290 289 289 289 289 289 290 290 290 290 290 290 290 290 290 291 293 292 293 291 291 292 292 294 295 295 294 294 293 293 293 292 293 294 294 292 291 291 291 291 291 291 293 296 295 295 295 296 298 299 299 298 300 299 299 299 299
293 292 292 291 290 290 290 290 289 289 289 289 289 289 290 290 290 290 290 290 290 289 292 294 292 292 291 291 291 291 293 293 294 294 292 292 292 292 292 293 293 292 290 291 290 291 291 291 291 295 293 291 291 292 299 300 300 299 299 299 298 298 297
292 292 291 291 290 289 289 289 289 289 289 289 289 288 288 289 289 289 290 290 290 290 290 292 292 292 291 290 290 290 290 291 291 294 292 291 291 291 292 292 293 292 290 290 290 290 290 291 292 292 290 291 291 292 295 298 298 298 298 297 297 296 296
290 290 291 290 290 289 288 288 289 288 288 288 288 288 288 288 288 288 289 289 290 290 290 290 291 291 291 290 290 290 290 290 290 293 293 291 291 291 291 291 291 290 290 290 290 290 290 290 291 290 290 291 292 293 296 296 296 296 295 295 295 296 296
Wind_Speed
3 2 3 3 2 2 5 6 5 6 5 5 6 7 7 7 7 6 6 5 6 6 6 6 6 6 7 7 7 8 8 8 7 8 10 8 7 5 7 9 8 9 9 9 8 6 5 3 4 5 5 7 8 9 9 10 10 9 9 8 9 9 6
3 3 1 2 4 5 6 6 7 7 8 8 8 8 8 8 9 8 8 8 8 8 7 7 7 7 9 9 9 7 8 8 7 8 8 8 8 9 8 7 9 7 7 8 8 7 8 8 7 6 6 6 8 8 9 10 9 9 9 9 9 9 7
5 5 5 6 5 4 6 6 7 8 8 8 8 8 8 9 8 8 8 9 9 8 7 7 8 8 8 8 8 8 9 9 7 8 9 8 8 8 8 8 7 7 5 5 8 9 7 8 9 7 8 8 9 9 9 9 12 11 10 9 9 9 8
6 6 7 7 6 7 7 7 7 7 8 8 8 8 6 8 7 8 8 8 7 7 7 7 7 7 7 8 8 9 9 10 8 9 8 9 8 8 8 7 9 7 8 10 10 10 9 7 7 8 5 8 11 9 9 11 9 11 10 10 11 10 9
6 5 6 6 6 7 7 8 7 7 8 7 7 7 8 8 8 8 8 7 7 7 7 7 7 7 7 7 7 7 6 7 7 8 8 8 8 7 8 7 7 7 7 6 3 5 8 9 8 9 8 5 6 7 2 7 8 9 10 9 9 9 10
6 6 5 5 6 7 8 8 8 7 7 7 7 7 7 9 8 8 8 7 7 7 8 8 8 8 7 7 7 7 7 7 7 8 8 7 8 8 8 7 7 8 8 7 6 6 7 8 9 10 8 7 8 6 5 6 7 9 8 10 10 10 9
6 5 5 6 6 6 6 6 6 6 6 6 7 8 8 8 7 8 7 7 7 7 8 8 8 8 8 8 8 8 8 7 7 8 8 8 8 9 8 8 8 8 8 7 7 7 8 7 7 9 7 6 8 8 4 6 7 7 7 9 9 8 8
5 5 5 5 5 5 4 5 6 5 6 6 6 7 7 7 8 7 7 7 8 8 9 9 8 8 8 7 6 7 7 6 6 7 7 8 8 8 8 8 8 8 8 7 7 9 9 10 10 9 8 8 6 7 7 6 7 12 9 8 9 10 11
5 5 6 5 5 4 5 5 6 6 6 7 5 6 7 7 8 9 8 9 9 9 9 9 9 9 10 9 7 7 8 6 7 7 6 7 8 8 9 8 8 8 7 8 8 8 8 8 9 8 8 9 8 6 6 7 7 8 9 8 9 11 11
8 7 6 7 6 6 5 5 6 6 6 6 6 7 7 8 8 7 8 8 9 8 9 9 9 9 10 9 8 8 8 7 6 7 6 6 7 8 8 9 9 8 8 7 8 8 8 8 8 8 8 9 7 7 7 7 8 9 8 10 9 10 12
6 6 6 6 5 5 6 6 6 6 7 7 7 6 7 8 7 8 8 8 9 9 9 9 9 9 10 9 8 7 7 7 6 5 5 5 7 7 8 8 7 7 7 7 7 7 8 8 8 9 9 9 8 9 8 8 7 8 6 8 6 6 10
6 5 6 6 5 6 7 6 6 6 7 8 7 8 7 7 8 8 8 8 9 9 9 8 8 8 9 9 9 8 7 7 6 5 6 6 6 6 8 8 7 7 7 7 7 7 8 8 9 9 9 9 9 11 9 7 8 4 6 8 8 5 8
6 6 7 6 5 6 6 6 7 7 8 6 8 7 7 8 9 9 8 8 9 9 10 9 9 9 8 8 8 8 8 8 8 7 7 6 6 7 7 8 7 6 6 6 7 7 7 7 7 7 8 8 9 10 9 8 10 8 3 5 6 8 7
7 5 5 5 5 7 6 6 6 6 6 8 7 7 8 9 9 9 8 9 9 9 9 10 8 8 7 8 8 8 8 8 8 7 6 7 7 8 8 7 8 8 7 7 6 6 6 8 9 8 7 7 7 7 8 8 7 7 1 1 3 5 6
5 5 6 6 7 6 7 7 7 7 7 7 7 8 9 8 8 9 8 10 10 9 9 9 9 7 8 9 10 8 9 9 10 10 9 11 10 9 8 9 9 9 8 7 8 7 6 6 5 5 6 7 7 6 6 5 6 5 4 0 2 2 4
5 6 6 6 7 7 6 7 8 8 8 7 7 7 8 8 9 10 10 10 11 9 10 9 8 8 9 9 9 10 10 10 11 11 12 12 12 11 12 11 11 10 8 7 7 7 7 7 6 6 4 2 4 4 5 6 4 4 5 3 3 3 4
6 5 6 6 8 8 7 7 8 8 8 7 7 7 8 9 9 10 10 11 11 10 10 10 11 11 10 10 10 11 11 11 11 11 11 11 12 11 11 11 12 12 11 9 7 6 6 6 6 6 4 3 3 4 4 5 6 5 4 4 3 5 4
6 6 6 6 8 8 9 8 8 8 8 8 8 7 8 8 10 10 9 10 11 11 11 10 11 11 11 12 11 11 12 12 12 12 11 11 12 10 10 11 10 11 11 10 10 9 8 9 7 4 4 2 2 2 3 5 6 4 4 6 4 3 3
6 7 7 8 9 9 8 8 7 8 9 7 7 7 8 8 9 10 10 10 10 11 10 10 10 11 12 12 12 12 11 11 12 12 12 12 11 10 9 11 11 12 12 13 12 10 10 9 8 7 5 2 2 1 2 2 2 3 4 5 3 2 2
6 7 8 8 8 8 8 7 8 9 8 6 7 8 9 9 9 9 10 10 11 11 12 11 10 10 11 11 11 12 13 12 11 10 11 12 12 11 11 11 12 13 12 12 13 12 10 9 9 8 5 4 2 3 4 4 3 4 4 2 2 3 4
7 8 8 8 7 7 8 8 7 7 7 7 8 9 9 10 9 9 10 9 10 9 10 11 12 11 10 11 11 13 12 12 11 11 11 12 12 12 13 13 12 12 13 11 11 11 11 9 7 8 8 6 5 2 2 2 2 1 2 3 3 3 3
7 8 8 7 8 8 8 7 7 7 7 8 8 9 9 10 10 11 11 10 10 10 10 10 10 11 10 11 9 9 8 9 9 9 9 10 10 11 12 11 11 13 16 19 18 16 15 14 9 9 8 7 7 5 2 0 1 2 2 4 4 3 4
7 7 7 8 8 7 7 7 8 9 10 9 8 9 10 10 11 11 10 12 11 11 10 8 15 19 17 10 10 9 10 9 10 10 10 9 11 12 11 10 12 24 19 19 17 16 17 17 17 13 9 9 8 7 6 4 2 2 2 3 3 2 3
7 9 8 7 7 8 8 7 8 9 9 9 10 9 9 11 10 9 11 11 12 10 10 10 19 17 18 19 11 11 10 11 12 12 12 12 12 14 12 11 10 15 17 17 15 16 15 16 15 16 19 19 18 13 9 9 9 6 2 3 2 2 3
8 7 7 8 8 7 7 8 9 9 9 10 9 9 11 11 11 11 10 12 12 11 10 15 18 18 18 19 16 10 10 10 11 12 12 12 11 11 12 12 11 9 12 17 13 12 13 14 14 15 16 18 20 20 17 13 10 10 10 7 7 6 6
8 8 8 8 7 7 8 10 10 10 10 8 8 11 11 11 11 10 11 12 12 12 10 17 17 18 17 17 16 12 9 10 11 12 12 12 12 12 11 11 12 12 11 22 15 13 12 12 13 15 15 15 18 21 20 21 20 14 9 9 9 10 11
8 8 7 7 8 8 10 10 9 8 8 8 10 10 10 11 10 11 10 10 11 11 11 14 18 17 16 16 15 12 9 10 10 11 12 12 11 12 12 11 12 12 12 13 13 13 11 11 12 13 13 14 13 16 18 20 19 20 16 10 9 10 9
8 7 7 8 8 10 9 8 9 8 8 9 9 9 9 10 10 10 10 9 9 11 11 19 18 18 16 15 14 11 9 9 9 10 11 12 12 12 12 10 11 14 15 16 14 15 12 12 12 12 13 14 14 14 15 15 12 10 11 10 10 10 11
7 7 8 8 9 10 9 9 9 6 7 8 7 8 8 9 10 10 10 10 11 12 11 19 18 18 17 14 13 8 8 9 9 9 10 11 12 11 11 12 10 12 13 12 17 22 17 11 13 13 14 13 12 13 14 13 16 16 13 10 9 9 9
7 8 7 9 10 9 9 8 7 5 8 8 9 9 9 8 7 9 10 10 11 10 11 16 18 18 17 16 11 8 8 8 9 9 10 9 9 10 12 13 10 10 12 12 18 21 20 16 12 13 12 12 11 11 12 12 15 17 16 18 19 20 19
8 8 9 10 9 8 7 6 7 5 8 8 9 8 6 8 9 9 10 11 10 10 10 15 19 18 17 16 11 8 7 7 9 10 9 9 8 8 13 22 18 11 12 11 19 21 21 16 15 14 12 10 13 12 13 12 10 11 15 16 19 19 20
8 8 9 8 7 8 7 7 5 6 7 7 7 6 6 8 9 9 9 9 13 12 10 12 17 17 18 16 11 8 8 7 10 9 8 9 8 8 9 11 19 16 13 15 21 20 21 16 11 11 10 12 13 13 11 11 12 13 13 14 14 14 14
7 8 9 8 7 7 5 6 7 7 7 6 7 7 7 8 10 8 7 9 9 9 10 10 13 17 16 16 14 9 7 8 8 9 9 8 8 8 8 8 12 18 18 19 19 20 20 19 11 10 9 11 12 11 8 9 12 10 11 11 11 12 12
9 8 7 7 7 6 6 7 6 7 7 6 7 8 9 8 9 8 8 8 8 9 8 9 12 16 16 16 15 11 8 9 7 7 6 8 7 8 8 8 7 15 18 18 18 19 19 19 16 10 10 8 7 6 7 8 11 13 10 10 11 11 11
7 7 6 6 8 8 6 6 6 6 6 7 9 9 8 7 8 8 8 8 8 8 9 12 9 14 16 16 16 15 9 8 7 6 7 7 7 7 8 7 8 13 18 18 18 19 19 17 18 10 13 15 16 15 10 7 7 7 8 9 10 11 12
7 6 6 6 8 8 6 7 6 6 7 8 9 9 8 7 7 8 8 7 7 8 8 8 13 11 14 15 16 15 14 10 11 8 7 8 8 7 7 8 9 15 17 17 17 18 18 18 14 13 18 17 16 15 12 8 9 9 8 8 9 9 10
7 6 6 6 8 8 7 7 7 6 6 7 7 8 7 6 7 8 8 8 8 7 7 7 9 13 11 15 14 15 14 14 13 8 7 7 7 8 8 9 10 16 16 16 17 17 17 17 14 17 17 18 16 13 8 8 8 8 9 10 10 9 8
Wind_Direction
105 82 13 8 22 3 23 16 6 12 11 20 11 9 8 4 358 353 339 318 315 308 303 292 286 279 273 271 268 269 272 272 267 258 257 255 238 250 211 227 231 232 223 225 227 216 244 259 232 224 231 218 214 213 212 214 210 208 205 203 201 201 193
74 52 9 46 36 18 30 9 12 2 8 8 14 9 5 0 356 346 340 339 337 333 326 316 301 285 274 273 273 270 273 273 260 263 267 269 266 256 248 213 223 230 225 207 216 219 236 241 240 203 216 211 215 214 212 212 209 206 207 206 201 198 195
30 25 36 27 17 15 30 15 11 10 4 4 4 4 358 357 345 344 342 343 346 337 330 314 301 293 287 281 275 269 265 261 257 259 261 269 272 276 270 271 239 220 226 207 209 215 226 226 245 225 208 198 212 219 207 208 209 204 201 202 201 196 197
34 35 25 16 9 21 21 14 16 7 9 360 355 351 357 346 344 346 347 345 330 315 296 293 289 285 286 283 277 272 270 267 260 260 258 261 267 273 273 276 276 255 225 216 210 204 205 208 220 239 221 202 213 220 208 209 207 208 202 196 198 199 195
47 41 34 21 15 28 21 22 14 8 6 358 351 353 354 346 348 344 341 325 313 304 304 297 294 292 290 288 287 283 282 277 277 274 266 258 264 268 269 267 273 279 282 267 276 221 218 225 214 233 220 206 228 234 196 195 210 211 205 200 200 199 197
44 41 35 33 27 35 27 24 15 11 358 0 350 350 345 349 341 335 336 330 326 318 315 312 309 303 296 290 290 291 286 280 274 270 263 265 267 268 276 266 261 264 267 253 224 234 239 235 220 236 230 200 216 222 204 179 208 209 202 203 199 200 192
43 43 39 43 40 46 36 28 18 4 346 349 346 343 341 341 340 334 328 328 319 317 320 319 319 317 309 303 296 295 295 291 283 274 270 266 260 258 254 255 251 248 252 248 240 231 228 225 231 230 232 214 210 220 171 197 201 190 210 206 199 198 193
48 48 51 51 45 41 37 32 6 350 346 333 355 340 341 342 340 335 333 327 328 330 329 329 327 325 319 309 303 295 291 282 280 261 260 265 266 261 253 248 253 248 241 236 229 230 226 227 229 225 220 221 205 203 206 197 198 203 203 199 190 194 195
50 51 46 37 28 31 32 25 8 356 351 343 346 352 353 347 344 339 341 343 341 340 337 333 332 338 338 333 326 326 324 320 315 306 295 291 290 279 270 260 252 249 243 238 230 228 228 228 226 221 213 216 210 213 211 209 206 224 197 188 201 199 194
36 34 34 32 22 24 22 25 20 359 354 359 359 1 354 347 346 342 342 343 344 341 340 339 339 341 339 336 336 336 337 328 323 317 307 306 303 296 293 275 261 258 252 244 238 233 233 226 227 225 208 214 210 215 220 217 214 217 200 193 193 204 196
35 33 32 32 24 31 27 20 24 3 7 3 1 356 351 346 346 348 345 347 345 345 345 343 345 342 339 337 337 335 334 327 325 320 316 316 317 310 304 304 286 268 263 256 247 233 239 231 225 224 213 214 208 217 219 221 228 204 204 200 198 189 193
31 29 33 30 27 34 28 20 18 8 11 8 0 359 350 354 355 351 353 350 353 352 348 346 345 347 340 342 342 336 339 338 335 324 324 322 322 318 324 320 309 296 281 269 259 245 239 235 229 221 219 215 210 215 221 224 240 230 180 192 209 194 184
33 32 27 23 32 35 24 20 13 18 14 7 8 356 3 4 360 355 355 357 357 354 352 347 351 346 343 346 341 339 343 349 345 340 337 338 340 335 338 339 334 321 308 297 285 258 242 236 238 234 224 215 210 208 211 221 227 239 222 216 190 199 194
27 28 32 23 40 33 23 19 19 18 12 20 1 4 11 6 0 354 357 358 356 355 349 349 344 342 342 340 340 341 343 352 357 354 343 346 348 349 346 345 346 340 332 323 314 305 274 247 235 230 222 215 215 207 208 212 229 244 261 249 176 204 190
30 31 39 29 37 30 27 22 17 12 16 8 6 12 14 10 358 358 358 360 2 359 357 348 347 344 355 346 359 3 7 7 11 8 4 4 359 351 347 348 350 342 340 336 337 331 335 333 313 278 231 209 203 196 195 205 223 225 218 354 137 133 168
36 37 40 36 36 30 25 23 25 22 16 5 4 6 6 8 7 8 9 7 7 4 0 353 340 350 357 1 7 15 17 20 21 20 18 13 9 2 6 359 352 341 341 343 346 338 335 322 308 293 262 224 214 201 183 204 208 220 232 230 154 172 185
36 36 46 38 39 34 27 28 31 26 18 10 6 6 9 9 13 10 13 10 13 6 4 358 1 5 2 10 14 14 15 20 22 21 19 15 12 11 10 6 356 346 343 344 342 338 329 310 307 308 275 228 225 191 185 184 205 209 197 227 204 191 194
44 43 48 45 40 37 35 33 33 30 19 17 7 9 18 18 20 17 16 13 13 9 7 4 9 3 9 13 15 14 15 16 18 18 16 14 15 12 11 10 3 0 356 352 348 345 343 334 332 337 331 334 242 204 203 199 201 190 197 212 215 190 174
45 42 44 47 47 45 39 35 31 35 31 18 7 12 24 23 26 25 19 17 18 15 11 8 12 12 15 16 18 20 20 19 19 18 15 10 6 7 8 11 12 12 12 6 350 347 342 340 336 338 335 317 237 200 247 212 182 213 214 232 222 221 195
50 50 51 53 54 50 46 39 43 40 27 11 28 27 21 26 25 25 22 21 25 22 21 17 16 16 21 21 26 28 26 23 21 15 12 9 2 4 8 10 14 13 18 16 9 1 348 353 339 337 350 342 268 221 211 211 210 226 233 223 204 208 204
60 60 61 60 56 53 54 49 39 44 32 22 28 22 21 25 22 26 20 23 19 21 22 27 21 13 18 21 26 34 30 30 26 23 18 15 10 7 12 11 14 12 13 18 15 9 4 353 350 3 357 335 326 318 296 276 191 189 264 247 213 208 204
60 64 63 58 54 54 55 52 43 34 27 27 27 25 34 35 32 30 24 22 22 24 25 21 19 15 7 19 23 28 20 25 29 27 22 20 16 15 14 12 13 13 13 16 23 30 28 23 19 21 2 352 350 331 11 45 307 245 257 255 252 222 203
65 62 57 57 54 51 51 50 51 49 47 41 35 36 37 38 39 35 29 29 29 31 27 20 13 14 19 20 27 31 34 26 25 25 25 25 27 26 15 12 11 14 10 10 12 23 31 33 37 42 24 14 1 7 348 326 239 210 246 256 250 230 213
64 63 58 57 53 51 49 48 48 48 45 43 43 37 38 42 37 31 34 33 33 32 29 17 10 15 15 16 23 34 26 27 24 26 25 23 24 22 19 18 16 10 12 10 9 8 30 33 37 41 44 44 44 40 21 14 0 335 283 263 282 236 226
69 63 61 57 53 51 50 50 50 46 46 43 41 43 44 43 42 39 39 40 39 32 27 11 16 18 21 22 25 30 29 29 28 26 23 21 17 13 13 17 17 10 11 11 5 4 14 24 29 35 40 45 44 44 50 50 23 14 3 358 0 2 353
72 65 59 59 57 56 55 53 49 45 44 42 44 47 44 43 42 39 41 42 39 32 29 13 18 20 23 26 26 35 36 33 35 31 29 26 24 21 16 15 16 18 9 13 10 8 10 15 23 29 33 38 44 42 37 38 40 33 9 24 19 25 13
71 67 64 61 61 60 57 55 52 49 52 46 47 49 43 46 42 39 38 41 42 35 30 10 20 20 22 25 27 36 40 39 38 35 33 29 26 24 20 22 22 17 9 12 8 4 10 14 21 27 29 31 32 32 35 36 35 33 37 37 37 35 10
75 71 66 66 66 62 60 60 55 47 50 48 48 46 41 44 42 40 37 37 46 40 27 18 22 22 21 24 26 38 39 42 40 38 35 32 30 27 21 17 24 28 25 24 12 7 18 22 25 28 28 30 31 29 30 28 23 23 31 32 37 37 26
77 73 72 70 68 64 59 55 55 45 56 56 53 53 47 47 42 42 38 38 44 40 29 22 23 23 22 20 30 37 36 39 41 37 34 30 32 29 26 22 17 21 18 17 6 13 18 24 35 31 30 27 28 29 30 20 24 31 36 33 36 36 31
83 78 76 74 67 61 60 53 51 41 64 58 56 49 49 45 38 42 39 37 39 38 32 21 23 24 23 20 32 35 35 35 35 36 34 25 25 26 28 25 21 19 19 18 8 15 17 28 34 29 27 26 26 31 25 11 15 23 24 30 34 33 31
86 81 76 74 73 68 64 61 57 35 63 63 57 49 48 54 44 39 40 39 35 38 31 22 24 26 26 24 32 33 32 38 39 35 32 27 23 23 25 28 30 23 22 17 17 21 16 25 38 33 27 22 32 29 20 12 14 20 23 29 29 28 29
84 83 79 73 73 73 64 64 56 54 59 65 64 58 52 57 52 43 39 38 35 39 33 24 24 27 30 26 31 32 33 37 43 32 26 28 25 24 20 21 25 26 27 23 25 26 24 25 32 24 17 30 35 32 18 10 15 16 19 24 23 22 24
78 81 83 79 70 68 67 67 57 66 59 61 67 58 58 57 58 47 35 37 37 33 35 30 26 29 33 32 30 40 30 39 35 31 28 27 20 20 21 15 21 21 25 27 27 27 28 27 31 25 19 32 25 18 350 13 19 21 30 32 27 25 24
83 75 78 84 81 70 60 69 65 67 70 64 68 61 56 55 57 49 38 36 38 32 33 33 29 32 34 36 32 36 40 37 30 31 28 28 24 22 13 12 8 14 23 27 29 28 29 28 28 31 27 29 17 337 358 24 18 22 30 28 30 29 26
74 80 76 82 83 73 58 65 69 72 73 72 68 62 53 50 54 49 40 35 34 31 24 32 34 32 34 36 37 37 43 34 25 31 34 32 24 23 17 9 14 13 23 26 29 30 29 29 28 31 21 21 16 16 23 20 22 20 25 27 27 28 26
78 76 78 79 86 81 67 67 62 63 72 72 68 65 51 46 51 47 43 36 32 30 22 24 32 34 33 36 36 39 40 39 31 42 42 35 24 15 11 16 14 18 25 25 27 29 30 27 30 24 22 23 22 18 24 26 24 26 22 24 27 27 22
75 72 81 83 81 83 73 72 66 59 64 71 74 67 49 49 54 51 47 37 29 24 22 25 26 30 34 35 35 37 38 39 39 46 47 44 28 25 22 19 20 23 25 25 24 26 28 29 27 23 22 21 23 25 26 27 28 28 30 26 26 20 17